Location: Hurstbourne Priors
(51.2000°N, 1.3667°W)
Time: 23:41:46
(UTC+00:00)

SPOT 5 - Pass Details

Date: 09 April 2020
Orbit: 624 x 814 km, 98.3° (Epoch: 29 May)

Event Time Altitude Azimuth Distance (km) Brightness Sun altitude
Exits shadow 22:10:54 46° 256° (WSW) 839 3.2 -25.7°
Maximum altitude 22:10:59 47° 260° (W) 838 3.3 -25.7°
Drops below altitude 10° 22:15:11 10° 335° (NNW) 2,012 6.2 -26.1°
Sets 22:17:28 0° 341° (NNW) 2,933 7.3 -26.3°
